Preview of NWS' New Version of Forecast
This preview is not operational and should not be used for support decisions.

Regional Weather Roundup (RWR)

Issued by National Weather Service (NWS)

                            
000
ASUS45 KBOI 152310
RWRID 

IDAHO REGIONAL WEATHER ROUNDUP
NATIONAL WEATHER SERVICE BOISE ID
400 PM MST FRI FEB 15 2019

NOTE: "FAIR" INDICATES FEW OR NO CLOUDS BELOW 12000 FEET
WITH NO SIGNIFICANT WEATHER AND/OR OBSTRUCTIONS TO VISIBILITY

IDZ012-014-160000-
SOUTHWEST IDAHO

  
CITY           SKY/WX    TMP DP  RH WIND       PRES   REMARKS
BOISE          CLOUDY    42  22  44 W8        29.70F                  
CALDWELL       CLOUDY    45  23  42 SW13      29.72R                  
MOUNTAIN HOME  PTSUNNY   41  22  47 SW22G29   29.71S                  
$$

IDZ016-017-160000-
SOUTHCENTRAL IDAHO

  
CITY           SKY/WX    TMP DP  RH WIND       PRES   REMARKS
BURLEY         CLOUDY    34  23  64 SW10      29.72F WCI  26          
JEROME         CLOUDY    36  24  62 SW10      29.73R WCI  28          
TWIN FALLS     CLOUDY    35  23  61 SW14G24   29.71F WCI  26          
$$

IDZ019>023-160000-
SOUTHEAST IDAHO

  
CITY           SKY/WX    TMP DP  RH WIND       PRES   REMARKS
IDAHO FALLS    LGT SNOW  29  26  89 SW18      29.70R FOG     WCI  16  
POCATELLO      LGT SNOW  29  27  92 SW16      29.74S VSB 1   WCI  17  
REXBURG        LGT SNOW  30  27  88 SW17G29   29.66R FOG     WCI  18  
$$

IDZ006-010-011-018-031-032-160000-
CENTRAL IDAHO MOUNTAINS

  
CITY           SKY/WX    TMP DP  RH WIND       PRES   REMARKS
MCCALL         LGT SNOW  28  22  78 S8        29.60R WCI  20          
HAILEY         MOSUNNY   30  19  64 S3        29.66S                  
STANLEY          N/A     24  15  68 VRB6      29.60R WCI  17          
SALMON         CLOUDY    34  29  82 S9        29.57R WCI  27          
CHALLIS        PTSUNNY   36  18  48 S12       29.57R WCI  28          
$$

IDZ002-004-006-007-026-160000-
NORTHERN IDAHO

  
CITY           SKY/WX    TMP DP  RH WIND       PRES   REMARKS
LEWISTON       CLOUDY    39  34  82 SE5       29.68R                  
LOWELL         NOT AVBL                                               
COEUR D'ALENE  LGT SNOW  33  30  88 SW6       29.63R FOG     WCI  28  
MULLAN PASS    SNOW      25  22  88 VRB3      29.48R VSB 1/4          
$$